1500080400.93,40054,17.81,73602.0,-2.37,-3.27,-3.27,0,*53
1500080402.12,40055,17.81,73602.0,-2.35,-3.15,-3.15,0,*50
1500080403.32,40056,17.81,73600.5,-2.35,-3.11,-3.11,0,*53
1500080404.55,40057,17.81,73598.8,-2.37,-3.11,-3.11,0,*50
1500080405.77,40058,17.81,73594.8,-2.37,-3.15,-3.15,0,*5F
1500080407.0,40059,17.81,73596.8,-2.37,-3.15,-3.15,0,*5E
1500080408.22,40060,17.88,73596.5,-2.37,-3.15,-3.19,0,*58
1500080409.45,40061,17.81,73598.5,-2.37,-3.15,-3.27,0,*54
1500080410.67,40062,17.81,73598.3,-2.37,-3.19,-3.19,0,*56
1500080411.9,40063,17.88,73600.8,-2.37,-3.15,-3.19,0,*5B
1500080413.09,40064,17.81,73598.8,-2.35,-3.11,-3.07,0,*55
1500080414.29,40065,17.81,73602.3,-2.35,-3.07,-3.07,0,*53
1500080415.49,40066,17.81,73592.0,-2.35,-3.11,-3.11,0,*50
1500080416.69,40067,17.81,73596.8,-2.35,-2.99,-2.95,0,*5D
1500080417.92,40068,17.81,73596.3,-2.37,-2.99,-2.99,0,*5C
1500080419.13,40069,17.81,73594.0,-2.35,-2.95,-2.95,0,*5F
1500080420.33,40070,17.81,73596.5,-2.35,-2.87,-2.83,0,*53
1500080421.55,40071,17.81,73592.3,-2.37,-2.91,-2.99,0,*5C
1500080422.76,40072,17.81,73594.5,-2.35,-2.95,-2.99,0,*59
1500080423.96,40073,17.81,73596.8,-2.35,-2.99,-2.95,0,*58
1500080425.16,40074,17.81,73598.8,-2.35,-2.99,-2.99,0,*53
1500080426.36,40075,17.81,73598.0,-2.35,-3.07,-2.99,0,*54
1500080427.56,40076,17.81,73596.8,-2.35,-2.99,-3.07,0,*57
1500080428.76,40077,17.81,73594.5,-2.35,-3.11,-2.99,0,*51
1500080429.96,40078,17.81,73592.0,-2.35,-3.11,-3.11,0,*5F
1500080431.16,40079,17.81,73594.8,-2.35,-3.15,-3.15,0,*5E
1500080432.36,40080,17.81,73596.8,-2.35,-3.15,-3.07,0,*5B
1500080433.59,40081,17.81,73598.5,-2.33,-3.11,-3.07,0,*58
1500080434.81,40082,17.81,73598.8,-2.33,-3.11,-3.11,0,*5C
1500080436.01,40083,17.81,73600.3,-2.35,-3.07,-3.11,0,*5C
1500080437.2,40084,17.81,73600.3,-2.35,-3.07,-3.07,0,*5C
1500080438.4,40085,17.81,73598.8,-2.35,-3.11,-3.07,0,*5A
1500080439.6,40086,17.81,73600.5,-2.35,-3.11,-3.15,0,*5A
1500080440.79,40087,17.81,73600.0,-2.35,-3.11,-3.15,0,*5B
1500080441.99,40088,17.81,73602.0,-2.35,-3.11,-3.15,0,*54
1500080443.19,40089,17.81,73598.8,-2.35,-3.15,-3.15,0,*51
1500080444.38,40090,17.81,73598.8,-2.35,-3.15,-3.15,0,*59
1500080445.58,40091,17.81,73600.0,-2.35,-3.15,-3.11,0,*5C
1500080446.78,40092,17.81,73606.0,-2.35,-3.15,-3.11,0,*5F
1500080447.98,40093,17.81,73606.5,-2.35,-3.11,-3.07,0,*5D
1500080449.18,40094,17.81,73604.8,-2.35,-3.11,-3.11,0,*5D
1500080450.38,40095,17.81,73602.0,-2.35,-3.15,-3.15,0,*5C
1500080451.59,40096,17.81,73604.0,-2.33,-3.23,-3.23,0,*59
1500080452.79,40097,17.81,73602.0,-2.31,-3.31,-3.31,0,*5A
1500080454.02,40098,17.81,73602.0,-2.33,-3.27,-3.35,0,*54
1500080455.24,40099,17.81,73598.0,-2.37,-3.19,-3.19,0,*52
1500080456.44,40100,17.81,73598.5,-2.35,-3.15,-3.15,0,*51
1500080457.64,40101,17.81,73594.3,-2.35,-3.11,-3.15,0,*54
1500080458.86,40102,17.81,73590.8,-2.37,-3.15,-3.19,0,*5D
1500080460.09,40103,17.81,73596.8,-2.37,-3.15,-3.27,0,*51
1500080461.29,40104,17.81,73596.8,-2.35,-3.07,-3.11,0,*52
1500080462.5,40105,17.81,73590.5,-2.35,-2.95,-2.95,0,*54
1500080463.7,40106,17.81,73582.3,-2.35,-2.95,-2.95,0,*57
1500080464.9,40107,17.81,73588.3,-2.35,-2.99,-3.07,0,*50
1500080466.1,40108,17.81,73588.8,-2.35,-2.99,-2.99,0,*59
1500080467.31,40109,17.81,73584.8,-2.35,-2.99,-2.95,0,*54
1500080468.51,40110,17.81,73582.8,-2.35,-3.07,-2.99,0,*56
1500080469.71,40111,17.81,73596.5,-2.31,-3.07,-3.07,0,*55
1500080470.91,40112,17.81,73590.0,-2.35,-3.07,-3.07,0,*52
1500080472.1,40113,17.81,73578.3,-2.35,-3.07,-3.07,0,*53
1500080473.3,40114,17.81,73570.3,-2.35,-3.11,-3.11,0,*54
1500080474.5,40115,17.81,73592.0,-2.35,-3.11,-3.11,0,*55
1500080475.7,40116,17.81,73592.5,-2.35,-3.07,-2.99,0,*50
1500080476.9,40117,17.81,73594.5,-2.35,-3.07,-2.99,0,*51
1500080478.1,40118,17.81,73590.0,-2.35,-3.07,-2.99,0,*5E
1500080479.3,40119,17.81,73588.5,-2.35,-3.11,-3.07,0,*5E
1500080480.53,40120,17.81,73592.0,-2.33,-3.07,-3.07,0,*55
1500080481.75,40121,17.81,73606.0,-2.33,-3.07,-3.11,0,*53
1500080482.95,40122,17.81,73598.0,-2.35,-3.11,-3.11,0,*51
1500080484.17,40123,17.81,73598.3,-2.33,-3.07,-3.07,0,*56
1500080485.39,40124,17.81,73600.0,-2.33,-3.07,-3.11,0,*56
1500080486.62,40125,17.81,73600.3,-2.33,-2.99,-3.11,0,*51
1500080487.81,40126,17.81,73600.8,-2.35,-3.07,-3.07,0,*55
1500080489.02,40127,17.81,73592.3,-2.35,-2.95,-2.99,0,*58
1500080490.23,40128,17.81,73586.8,-2.35,-2.95,-2.99,0,*57
1500080491.46,40129,17.81,73586.5,-2.33,-2.99,-2.95,0,*50
1500080492.67,40130,17.81,73588.3,-2.31,-2.95,-3.03,0,*58
1500080493.89,40131,17.81,73590.8,-2.33,-2.99,-3.07,0,*53
1500080495.08,40132,17.81,73590.8,-2.31,-2.91,-2.91,0,*54
1500080496.31,40133,17.81,73592.3,-2.33,-2.99,-2.99,0,*57
1500080497.53,40134,17.81,73590.0,-2.33,-3.07,-3.11,0,*57
1500080498.76,40135,17.81,73594.3,-2.33,-3.07,-3.07,0,*51
1500080499.98,40136,17.81,73606.5,-2.33,-3.11,-3.07,0,*55
1500080501.21,40137,17.81,73602.5,-2.33,-3.07,-3.07,0,*53
1500080502.44,40138,17.81,73598.3,-2.33,-2.95,-2.95,0,*5C
1500080503.64,40139,17.81,73590.3,-2.31,-2.79,-2.83,0,*5A
1500080504.87,40140,17.81,73592.3,-2.33,-2.87,-2.95,0,*50
1500080506.09,40141,17.81,73596.0,-2.33,-3.07,-2.99,0,*54
1500080507.32,40142,17.81,73602.3,-2.33,-3.11,-3.07,0,*56
1500080508.52,40143,17.81,73598.8,-2.31,-3.07,-3.07,0,*52
1500080509.74,40144,17.81,73598.0,-2.33,-3.07,-3.07,0,*57
1500080510.95,40145,17.81,73594.8,-2.31,-3.03,-2.95,0,*5A
1500080512.18,40146,17.81,73592.5,-2.33,-2.99,-2.99,0,*55
1500080513.4,40147,17.81,73594.8,-2.33,-2.99,-2.99,0,*54
1500080514.61,40148,17.81,73592.5,-2.31,-3.03,-3.03,0,*59
1500080515.83,40149,17.81,73592.5,-2.33,-3.11,-3.11,0,*5A
1500080517.05,40150,17.81,73590.8,-2.33,-3.11,-3.11,0,*52
1500080518.26,40151,17.81,73588.8,-2.31,-3.07,-3.07,0,*51
1500080519.48,40152,17.81,73592.5,-2.33,-3.15,-3.11,0,*54
1500080520.71,40153,17.81,73594.3,-2.33,-3.15,-3.11,0,*55
1500080521.93,40154,17.81,73594.3,-2.33,-3.15,-3.15,0,*56
1500080523.15,40155,17.81,73592.0,-2.33,-3.15,-3.15,0,*57
1500080524.37,40156,17.81,73596.8,-2.33,-3.15,-3.23,0,*51
1500080525.59,40157,17.81,73592.3,-2.33,-3.23,-3.23,0,*55
1500080526.79,40158,17.81,73598.8,-2.31,-3.11,-3.11,0,*58
1500080528.01,40159,17.81,73592.8,-2.33,-3.23,-3.15,0,*5E
1500080529.22,40160,17.81,73594.8,-2.29,-3.19,-3.19,0,*5A
1500080530.45,40161,17.81,73594.8,-2.33,-3.15,-3.15,0,*50
1500080531.64,40162,17.81,73594.8,-2.31,-3.19,-3.19,0,*51
1500080532.86,40163,17.81,73594.5,-2.33,-3.15,-3.23,0,*57
1500080534.06,40164,17.81,73596.0,-2.31,-3.19,-3.19,0,*57
1500080535.28,40165,17.81,73592.3,-2.33,-3.23,-3.27,0,*50
1500080536.51,40166,17.81,73596.0,-2.33,-3.23,-3.27,0,*53
1500080537.73,40167,17.81,73598.0,-2.33,-3.27,-3.23,0,*52
1500080538.95,40168,17.81,73598.0,-2.33,-3.27,-3.23,0,*5D
1500080540.17,40169,17.81,73594.3,-2.33,-3.23,-3.15,0,*5D
1500080541.38,40170,17.81,73594.5,-2.33,-3.23,-3.23,0,*50
1500080542.6,40171,17.81,73596.5,-2.33,-3.23,-3.15,0,*54
1500080543.82,40172,17.81,73598.5,-2.33,-3.07,-2.99,0,*54
1500080545.06,40173,17.81,73598.3,-2.33,-2.95,-2.99,0,*5F
1500080546.28,40174,17.81,73598.8,-2.33,-3.07,-3.07,0,*54
1500080547.51,40175,17.81,73596.5,-2.33,-3.11,-3.11,0,*55
1500080548.73,40176,17.81,73598.0,-2.33,-3.11,-3.11,0,*56
1500080549.95,40177,17.81,73600.3,-2.33,-3.23,-3.15,0,*52
1500080551.16,40178,17.81,73602.0,-2.33,-3.23,-3.23,0,*58
1500080552.36,40179,17.81,73604.5,-2.31,-3.31,-3.23,0,*58
1500080553.58,40180,17.81,73598.3,-2.33,-3.27,-3.23,0,*5B
1500080554.78,40181,17.81,73594.5,-2.31,-3.11,-3.11,0,*5C
1500080556.0,40182,17.81,73590.8,-2.33,-3.15,-3.15,0,*5D
1500080557.23,40183,17.81,73586.8,-2.33,-3.15,-3.15,0,*5C
1500080558.45,40184,17.81,73580.8,-2.33,-3.11,-3.15,0,*5F
1500080559.67,40185,17.81,73588.8,-2.33,-3.11,-3.15,0,*5E
1500080560.89,40186,17.81,73588.3,-2.33,-3.11,-3.11,0,*59
1500080562.12,40187,17.81,73590.3,-2.33,-3.11,-3.11,0,*58
1500080563.34,40188,17.81,73588.5,-2.33,-3.11,-3.11,0,*57
1500080564.56,40189,17.81,73584.8,-2.33,-3.11,-3.15,0,*52
1500080565.76,40190,17.81,73586.3,-2.31,-3.11,-3.11,0,*5C
1500080566.96,40191,17.81,73592.5,-2.31,-3.07,-3.11,0,*5A
1500080568.18,40192,17.81,73594.5,-2.33,-3.11,-3.15,0,*58
1500080569.41,40193,17.81,73596.8,-2.33,-3.15,-3.15,0,*5D
1500080570.63,40194,17.81,73590.5,-2.33,-3.07,-3.07,0,*5A
1500080571.83,40195,17.81,73590.3,-2.35,-3.07,-3.07,0,*5D
1500080573.03,40196,17.81,73596.8,-2.35,-3.11,-3.07,0,*59
1500080574.23,40197,17.81,73592.5,-2.35,-3.11,-3.07,0,*58
1500080575.42,40198,17.81,73594.5,-2.35,-3.07,-3.11,0,*57
1500080576.63,40199,17.81,73598.5,-2.35,-2.95,-2.99,0,*5D
1500080577.83,40200,17.81,73600.5,-2.35,-2.87,-2.83,0,*56
1500080579.03,40201,17.81,73602.3,-2.35,-2.87,-2.83,0,*57
1500080580.3,40202,17.81,73602.8,-2.33,-2.71,-2.71,0,*56
1500080581.52,40203,17.81,73598.3,-2.33,-2.83,-2.83,0,*57
1500080582.72,40204,17.81,73598.8,-2.31,-2.87,-2.87,0,*52
1500080583.93,40205,17.81,73592.8,-2.31,-2.95,-2.91,0,*57
1500080585.14,40206,17.81,73592.5,-2.31,-2.95,-2.95,0,*50
1500080586.35,40207,17.81,73586.5,-2.31,-2.95,-2.95,0,*51
1500080587.55,40208,17.81,73580.8,-2.31,-2.95,-2.91,0,*5A
1500080588.75,40209,17.81,73580.0,-2.31,-2.91,-2.91,0,*5F
1500080589.95,40210,17.81,73586.0,-2.31,-3.03,-2.95,0,*59
1500080591.15,40211,17.81,73584.3,-2.31,-3.07,-3.07,0,*56
1500080592.36,40212,17.81,73586.5,-2.31,-3.11,-3.07,0,*52
1500080593.56,40213,17.81,73586.0,-2.31,-3.15,-3.15,0,*54
1500080594.76,40214,17.81,73584.8,-2.31,-3.07,-3.11,0,*54
1500080595.96,40215,17.81,73586.0,-2.31,-3.07,-3.07,0,*52
1500080597.16,40216,17.81,73584.3,-2.31,-3.07,-3.07,0,*51
1500080598.36,40217,17.81,73586.3,-2.31,-3.03,-3.07,0,*54
1500080599.58,40218,17.81,73586.8,-2.33,-3.07,-3.07,0,*5D
1500080600.78,40219,17.81,73586.0,-2.31,-2.91,-2.91,0,*5E
1500080601.99,40220,17.81,73586.3,-2.31,-2.95,-2.95,0,*54
1500080603.21,40221,17.81,73586.3,-2.33,-3.11,-3.11,0,*57
1500080604.41,40222,17.81,73588.8,-2.31,-3.07,-3.07,0,*56
1500080605.64,40223,17.81,73590.3,-2.33,-3.11,-3.11,0,*55
1500080606.86,40224,17.81,73590.3,-2.33,-3.11,-3.11,0,*52
1500080608.09,40225,17.81,73584.8,-2.33,-3.11,-3.11,0,*53
1500080609.31,40226,17.81,73590.0,-2.33,-3.11,-3.11,0,*50
1500080610.51,40227,17.81,73590.0,-2.31,-3.07,-3.07,0,*53
1500080611.73,40228,17.81,73590.8,-2.33,-3.11,-3.15,0,*5A
1500080612.93,40229,17.81,73592.3,-2.31,-3.11,-3.11,0,*5D
1500080614.15,40230,17.81,73596.0,-2.33,-3.15,-3.23,0,*52
1500080615.37,40231,17.81,73594.3,-2.33,-3.23,-3.15,0,*53
1500080616.57,40232,17.81,73596.3,-2.31,-3.19,-3.11,0,*5F
1500080617.79,40233,17.81,73594.5,-2.33,-3.15,-3.15,0,*54
1500080619.02,40234,17.81,73592.5,-2.33,-3.15,-3.15,0,*53
1500080620.24,40235,17.81,73586.8,-2.33,-3.15,-3.15,0,*52
1500080621.44,40236,17.81,73592.3,-2.31,-3.11,-3.07,0,*54
1500080622.66,40237,17.81,73594.8,-2.33,-3.11,-3.11,0,*50
1500080623.89,40238,17.81,73598.0,-2.33,-3.11,-3.11,0,*5F
1500080625.09,40239,17.81,73598.0,-2.31,-3.03,-2.95,0,*52
1500080626.32,40240,17.81,73594.8,-2.33,-2.99,-2.95,0,*5C
1500080627.56,40241,17.81,73594.0,-2.33,-2.95,-2.95,0,*51
1500080628.75,40242,17.81,73596.0,-2.31,-2.91,-2.91,0,*50
1500080629.94,40243,17.81,73598.0,-2.31,-2.91,-2.91,0,*51
1500080631.17,40244,17.81,73596.5,-2.33,-2.87,-2.87,0,*54
1500080632.39,40245,17.81,73590.5,-2.33,-2.87,-2.87,0,*55
1500080633.62,40246,17.81,73596.8,-2.33,-2.95,-3.07,0,*5C
1500080634.82,40247,17.81,73596.3,-2.31,-3.03,-3.07,0,*51
1500080636.02,40248,17.81,73590.8,-2.31,-3.03,-3.03,0,*5A
1500080637.25,40249,17.81,73594.0,-2.33,-3.07,-3.11,0,*5E
1500080638.45,40250,17.81,73594.8,-2.31,-3.07,-3.07,0,*53
1500080639.67,40251,17.81,73598.0,-2.33,-3.15,-3.11,0,*54
1500080640.88,40252,17.81,73598.5,-2.31,-3.11,-3.07,0,*56
1500080642.1,40253,17.81,73596.5,-2.33,-3.15,-3.11,0,*56
1500080643.33,40254,17.81,73600.8,-2.33,-3.11,-3.11,0,*55
1500080644.55,40255,17.81,73600.0,-2.33,-3.03,-3.07,0,*50
1500080645.77,40256,17.81,73598.8,-2.33,-3.07,-3.11,0,*50
1500080646.97,40257,17.81,73598.5,-2.31,-3.07,-3.07,0,*54
1500080648.2,40258,17.81,73596.0,-2.33,-3.11,-3.11,0,*59
1500080649.42,40259,17.81,73598.0,-2.33,-3.07,-3.11,0,*5F
1500080650.62,40260,17.81,73588.5,-2.31,-3.11,-3.11,0,*50
1500080651.82,40261,17.81,73576.5,-2.31,-3.03,-3.03,0,*51
1500080653.05,40262,17.81,73574.3,-2.33,-3.11,-3.11,0,*50
1500080654.27,40263,17.81,73568.8,-2.33,-3.11,-3.07,0,*56
1500080655.47,40264,17.81,73574.3,-2.31,-3.03,-3.03,0,*54
1500080656.7,40265,17.81,73578.5,-2.33,-2.99,-2.95,0,*5B
1500080657.9,40266,17.81,73582.0,-2.31,-2.79,-2.79,0,*56
1500080659.1,40267,17.81,73586.8,-2.31,-2.83,-2.83,0,*57
1500080660.3,40268,17.81,73586.0,-2.31,-2.95,-2.91,0,*5C
1500080661.54,40269,17.81,73574.3,-2.33,-2.95,-2.99,0,*57
1500080662.74,40270,17.81,73570.0,-2.31,-2.91,-2.95,0,*55
1500080663.95,40271,17.81,73560.5,-2.31,-2.95,-2.95,0,*50
1500080665.16,40272,17.81,73572.0,-2.31,-2.95,-2.95,0,*53
1500080666.37,40273,17.81,73584.0,-2.31,-2.95,-3.03,0,*5C
1500080667.57,40274,17.81,73594.0,-2.31,-3.03,-3.03,0,*55
1500080668.79,40275,17.81,73602.8,-2.33,-3.11,-3.11,0,*56
1500080669.99,40276,17.81,73596.8,-2.31,-3.07,-3.07,0,*57
1500080671.2,40277,17.81,73584.0,-2.31,-3.07,-3.07,0,*56
1500080672.42,40278,17.81,73592.8,-2.33,-3.07,-3.11,0,*5C
1500080673.64,40279,17.81,73592.5,-2.29,-3.03,-3.03,0,*51
1500080674.85,40280,17.81,73588.0,-2.31,-3.03,-2.95,0,*50
1500080676.05,40281,17.81,73588.8,-2.31,-3.03,-3.03,0,*5F
1500080677.25,40282,17.81,73594.5,-2.31,-3.07,-3.07,0,*5C
1500080678.45,40283,17.81,73590.8,-2.31,-3.07,-3.03,0,*59
1500080679.65,40284,17.81,73590.0,-2.31,-3.07,-3.03,0,*5E
1500080680.85,40285,17.81,73588.8,-2.31,-3.03,-3.03,0,*5B
1500080682.05,40286,17.81,73592.5,-2.31,-2.91,-2.95,0,*5C
1500080683.25,40287,17.81,73588.0,-2.31,-2.91,-2.91,0,*59
1500080684.44,40288,17.81,73590.3,-2.31,-2.91,-2.83,0,*55
1500080685.64,40289,17.81,73594.8,-2.31,-2.91,-2.83,0,*54
1500080686.86,40290,17.81,73594.8,-2.29,-2.79,-2.83,0,*53
1500080688.09,40291,17.81,73592.0,-2.29,-2.79,-2.83,0,*52
1500080689.3,40292,17.81,73592.5,-2.29,-2.79,-2.79,0,*54
1500080690.49,40293,17.81,73594.3,-2.27,-2.91,-2.91,0,*5B
1500080691.72,40294,17.81,73592.3,-2.29,-2.95,-2.91,0,*56
1500080692.94,40295,17.81,73592.3,-2.29,-2.95,-2.91,0,*57
1500080694.16,40296,17.81,73592.8,-2.29,-2.83,-2.79,0,*55
1500080695.38,40297,17.81,73590.0,-2.29,-2.79,-2.79,0,*51
1500080696.63,40298,17.81,73584.8,-2.27,-2.67,-2.63,0,*54
1500080697.88,40299,17.81,73582.5,-2.29,-2.79,-2.71,0,*57
1500080699.09,40300,17.81,73580.0,-2.29,-2.83,-2.79,0,*5B
1500080700.32,40301,17.81,73580.8,-2.29,-2.95,-2.91,0,*5B
1500080701.52,40302,17.81,73582.8,-2.27,-2.99,-2.99,0,*52
1500080702.72,40303,17.81,73588.0,-2.27,-3.03,-3.03,0,*53
1500080703.92,40304,17.81,73588.8,-2.27,-3.03,-3.03,0,*54
1500080705.14,40305,17.81,73582.3,-2.29,-3.03,-2.95,0,*55
1500080706.35,40306,17.81,73582.0,-2.27,-2.99,-2.99,0,*56
1500080707.55,40307,17.81,73586.0,-2.27,-2.99,-2.99,0,*57
1500080708.77,40308,17.81,73586.0,-2.29,-3.07,-3.03,0,*52
1500080709.97,40309,17.81,73584.0,-2.27,-2.99,-3.03,0,*5B
1500080711.17,40310,17.81,73588.0,-2.27,-3.03,-3.03,0,*51
1500080712.36,40311,17.81,73584.3,-2.27,-2.91,-2.99,0,*58
1500080713.56,40312,17.81,73576.5,-2.27,-2.87,-2.87,0,*53
1500080714.78,40313,17.81,73572.8,-2.29,-2.91,-2.95,0,*58
1500080716.01,40314,17.81,73582.5,-2.29,-2.95,-3.03,0,*55
1500080717.23,40315,17.81,73582.8,-2.29,-3.03,-3.07,0,*5E
1500080718.43,40316,17.81,73580.0,-2.27,-2.99,-3.03,0,*55
1500080719.65,40317,17.81,73586.5,-2.29,-3.07,-3.07,0,*58
1500080720.87,40318,17.81,73584.8,-2.29,-3.07,-3.07,0,*57
1500080722.09,40319,17.81,73586.8,-2.29,-3.07,-3.07,0,*56
1500080723.29,40320,17.81,73584.3,-2.27,-3.07,-3.07,0,*52
1500080724.51,40321,17.81,73588.8,-2.29,-3.07,-3.07,0,*5D
1500080725.71,40322,17.81,73586.3,-2.27,-3.03,-2.91,0,*5A
1500080726.9,40323,17.81,73580.8,-2.27,-2.87,-2.87,0,*51
1500080728.1,40324,17.81,73580.5,-2.27,-2.87,-2.87,0,*56
1500080729.32,40325,17.81,73582.0,-2.29,-2.83,-2.91,0,*5A
1500080730.51,40326,17.81,73584.8,-2.27,-2.79,-2.87,0,*55
1500080731.77,40327,17.81,73594.5,-2.27,-2.75,-2.75,0,*55
1500080733.02,40328,17.81,73588.0,-2.27,-2.67,-2.63,0,*5E
1500080734.27,40329,17.81,73580.3,-2.23,-2.67,-2.75,0,*5C
1500080735.49,40330,17.81,73580.8,-2.27,-2.79,-2.75,0,*5F
1500080736.74,40331,17.81,73580.8,-2.23,-2.75,-2.75,0,*56
1500080738.0,40332,17.81,73574.5,-2.27,-2.75,-2.75,0,*51
1500080739.22,40333,17.81,73576.8,-2.23,-2.79,-2.75,0,*58
1500080740.41,40334,17.81,73582.0,-2.27,-2.91,-2.91,0,*57
1500080741.61,40335,17.81,73582.3,-2.27,-3.03,-3.03,0,*56
1500080742.81,40336,17.81,73584.0,-2.23,-2.91,-2.87,0,*56
1500080744.0,40337,17.81,73580.5,-2.23,-2.99,-2.91,0,*58
1500080745.19,40338,17.81,73582.3,-2.23,-2.91,-2.91,0,*5F
1500080746.39,40339,17.81,73584.8,-2.23,-3.03,-3.03,0,*5E
1500080747.59,40340,17.81,73584.0,-2.23,-2.99,-2.99,0,*50
1500080748.79,40341,17.81,73584.0,-2.23,-3.03,-3.03,0,*51
1500080749.99,40342,17.81,73584.5,-2.23,-3.03,-3.03,0,*52
1500080751.19,40343,17.81,73588.3,-2.23,-3.07,-3.03,0,*57
1500080752.39,40344,17.81,73588.0,-2.23,-3.07,-3.03,0,*50
1500080753.59,40345,17.81,73584.8,-2.27,-2.99,-2.99,0,*51
1500080754.79,40346,17.81,73588.5,-2.23,-3.03,-2.99,0,*54
1500080755.99,40347,17.81,73594.5,-2.23,-2.99,-2.99,0,*57
1500080757.19,40348,17.81,73588.3,-2.23,-2.87,-2.79,0,*59
1500080758.41,40349,17.81,73588.8,-2.27,-2.79,-2.75,0,*51
1500080759.61,40350,17.81,73592.8,-2.23,-2.91,-2.87,0,*56
1500080760.8,40351,17.81,73588.8,-2.23,-2.87,-2.79,0,*51
1500080762.0,40352,17.81,73588.5,-2.23,-2.91,-2.87,0,*54
1500080763.19,40353,17.81,73592.5,-2.23,-2.99,-2.91,0,*5A
1500080764.39,40354,17.81,73592.5,-2.23,-2.99,-3.03,0,*57
1500080765.59,40355,17.81,73594.0,-2.23,-2.99,-2.99,0,*54
1500080766.79,40356,17.81,73592.0,-2.23,-2.99,-3.03,0,*55
1500080767.99,40357,17.81,73594.8,-2.23,-3.03,-3.03,0,*56
1500080769.22,40358,17.81,73596.5,-2.21,-2.95,-2.99,0,*57
1500080770.42,40359,17.81,73598.3,-2.23,-3.03,-3.03,0,*58
1500080771.62,40360,17.81,73596.5,-2.23,-2.99,-3.03,0,*50
1500080772.82,40361,17.81,73596.3,-2.23,-3.07,-3.03,0,*57
1500080774.02,40362,17.81,73592.3,-2.23,-3.15,-3.15,0,*50
1500080775.21,40363,17.81,73592.5,-2.23,-3.07,-3.07,0,*51
1500080776.41,40364,17.81,73598.5,-2.23,-3.15,-3.07,0,*55
1500080777.61,40365,17.81,73594.8,-2.23,-3.07,-3.07,0,*57
1500080778.81,40366,17.81,73592.3,-2.27,-3.19,-3.11,0,*58
1500080780.01,40367,17.81,73592.3,-2.27,-3.07,-3.07,0,*51
1500080781.2,40368,17.81,73596.8,-2.27,-3.07,-3.07,0,*5E
1500080782.4,40369,17.81,73598.8,-2.27,-3.07,-3.07,0,*5F
1500080783.6,40370,17.81,73594.0,-2.27,-3.15,-3.07,0,*54
1500080784.8,40371,17.81,73596.3,-2.27,-3.15,-3.15,0,*56
1500080786.0,40372,17.81,73598.0,-2.27,-3.07,-3.07,0,*55
1500080787.19,40373,17.81,73596.0,-2.27,-3.07,-3.07,0,*54
1500080788.39,40374,17.81,73598.5,-2.27,-3.07,-3.07,0,*53
1500080789.59,40375,17.81,73596.3,-2.27,-3.15,-3.07,0,*51
1500080790.81,40376,17.81,73596.5,-2.29,-3.19,-3.19,0,*5F
1500080792.01,40377,17.81,73598.3,-2.27,-3.07,-3.15,0,*53
1500080793.2,40378,17.81,73598.3,-2.27,-3.15,-3.19,0,*53
1500080794.42,40379,17.81,73596.5,-2.29,-3.19,-3.11,0,*58
1500080795.64,40380,17.81,73596.3,-2.29,-3.19,-3.23,0,*5F
1500080796.83,40381,17.81,73598.0,-2.27,-3.19,-3.15,0,*55
1500080798.02,40382,17.81,73596.8,-2.31,-3.23,-3.23,0,*5D
1500080799.24,40383,17.81,73598.0,-2.29,-3.31,-3.23,0,*56
1500080800.46,40384,17.75,73594.0,-2.29,-3.11,-3.11,0,*52
1500080801.68,40385,17.81,73594.3,-2.29,-3.19,-3.19,0,*53
1500080802.89,40386,17.81,73596.5,-2.29,-3.23,-3.23,0,*50
1500080804.11,40387,17.81,73598.0,-2.29,-3.19,-3.23,0,*58
1500080805.33,40388,17.81,73596.5,-2.29,-3.19,-3.11,0,*56
1500080806.55,40389,17.81,73596.8,-2.29,-3.19,-3.19,0,*5F
1500080807.77,40390,17.81,73596.8,-2.29,-3.11,-3.11,0,*57
1500080808.98,40391,17.81,73598.8,-2.29,-3.19,-3.19,0,*56
1500080810.18,40392,17.81,73596.8,-2.31,-3.19,-3.19,0,*5C
1500080811.38,40393,17.81,73598.8,-2.31,-3.31,-3.31,0,*5D
1500080812.58,40394,17.81,73600.8,-2.31,-3.11,-3.23,0,*5B
1500080813.78,40395,17.81,73602.8,-2.31,-3.19,-3.11,0,*53
1500080814.98,40396,17.81,73600.3,-2.31,-3.07,-3.07,0,*58
1500080816.18,40397,17.81,73600.3,-2.31,-3.07,-3.07,0,*59
1500080817.38,40398,17.81,73602.0,-2.31,-3.07,-3.03,0,*52
1500080818.58,40399,17.81,73602.8,-2.31,-3.07,-3.07,0,*57
1500080819.79,40400,17.81,73600.0,-2.31,-3.03,-3.03,0,*50
1500080820.99,40401,17.81,73606.8,-2.31,-3.07,-3.07,0,*51
1500080822.21,40402,17.81,73600.8,-2.29,-3.07,-3.03,0,*5F
1500080823.41,40403,17.81,73604.3,-2.31,-3.03,-3.03,0,*53
1500080824.61,40404,17.81,73602.0,-2.31,-3.03,-3.03,0,*54
1500080825.83,40405,17.81,73598.8,-2.29,-3.07,-3.03,0,*58
1500080827.06,40406,17.81,73602.0,-2.29,-3.03,-3.07,0,*5B
1500080828.28,40407,17.81,73602.0,-2.29,-3.03,-3.07,0,*5A
1500080829.5,40408,17.81,73604.3,-2.29,-3.03,-3.03,0,*51
1500080830.73,40409,17.81,73606.5,-2.29,-2.95,-2.95,0,*50
1500080831.96,40410,17.81,73606.3,-2.29,-2.95,-2.91,0,*5C
1500080833.18,40411,17.81,73602.8,-2.29,-2.95,-2.91,0,*5D
1500080834.4,40412,17.81,73602.3,-2.29,-2.91,-2.95,0,*5E
1500080835.63,40413,17.81,73600.0,-2.29,-2.95,-2.91,0,*5F
1500080836.85,40414,17.81,73596.0,-2.29,-3.07,-3.07,0,*5C
1500080838.07,40415,17.81,73596.8,-2.29,-3.07,-3.07,0,*5D
1500080839.27,40416,17.81,73598.0,-2.27,-3.07,-3.07,0,*50
1500080840.49,40417,17.81,73592.8,-2.29,-3.07,-3.11,0,*58
1500080841.71,40418,17.81,73596.5,-2.29,-3.03,-3.11,0,*53
1500080842.91,40419,17.81,73596.8,-2.27,-3.03,-3.03,0,*5F
1500080844.11,40420,17.81,73594.0,-2.27,-3.03,-3.03,0,*55
1500080845.31,40421,17.81,73594.3,-2.27,-3.03,-2.99,0,*56
1500080846.53,40422,17.81,73602.3,-2.29,-3.03,-3.03,0,*59
1500080847.73,40423,17.81,73598.0,-2.27,-3.03,-2.99,0,*54
1500080848.95,40424,17.81,73598.0,-2.29,-3.07,-3.07,0,*5F
1500080850.17,40425,17.81,73602.0,-2.29,-3.03,-3.07,0,*5A
1500080851.37,40426,17.81,73600.3,-2.27,-3.03,-3.03,0,*53
1500080852.57,40427,17.81,73604.0,-2.27,-2.99,-3.03,0,*50
1500080853.77,40428,17.81,73604.0,-2.23,-2.99,-3.03,0,*5B
1500080854.99,40429,17.81,73598.5,-2.29,-2.79,-2.83,0,*57
1500080856.25,40430,17.81,73598.0,-2.27,-2.63,-2.63,0,*54
1500080857.5,40431,17.81,73604.3,-2.27,-2.67,-2.63,0,*51
1500080858.69,40432,17.81,73606.5,-2.27,-2.87,-2.87,0,*56
1500080859.89,40433,17.81,73602.8,-2.23,-2.87,-2.87,0,*53
1500080861.09,40434,17.81,73598.5,-2.23,-2.87,-2.87,0,*54
1500080862.29,40435,17.81,73598.3,-2.23,-2.91,-2.99,0,*5D
1500080863.48,40436,17.81,73602.8,-2.27,-2.99,-2.91,0,*5A
1500080864.67,40437,17.81,73604.8,-2.27,-2.91,-2.91,0,*53
1500080865.87,40438,17.81,73602.3,-2.27,-2.79,-2.91,0,*5A
1500080867.06,40439,17.81,73608.0,-2.27,-2.79,-2.87,0,*5C
1500080868.25,40440,17.81,73610.5,-2.27,-2.91,-2.91,0,*53
1500080869.46,40441,17.81,73604.8,-2.27,-2.99,-2.99,0,*52
1500080870.66,40442,17.81,73602.3,-2.23,-3.03,-2.99,0,*57
1500080871.86,40443,17.81,73600.0,-2.23,-3.03,-2.99,0,*56
1500080873.06,40444,17.81,73602.8,-2.23,-2.99,-3.03,0,*51
1500080874.28,40445,17.81,73604.8,-2.21,-2.99,-2.99,0,*50
1500080875.48,40446,17.81,73608.3,-2.23,-3.03,-3.03,0,*51
1500080876.68,40447,17.81,73606.5,-2.23,-2.99,-2.99,0,*50
1500080877.89,40448,17.81,73600.0,-2.23,-2.99,-2.99,0,*5F
1500080879.08,40449,17.81,73594.8,-2.27,-3.03,-3.03,0,*5A
1500080880.28,40450,17.81,73590.0,-2.27,-3.03,-3.03,0,*52
1500080881.48,40451,17.81,73588.3,-2.23,-3.03,-3.03,0,*57
1500080882.68,40452,17.81,73596.0,-2.23,-3.03,-3.03,0,*54
1500080883.88,40453,17.81,73594.8,-2.23,-2.91,-2.99,0,*5D
1500080885.08,40454,17.81,73600.8,-2.23,-2.99,-2.99,0,*52
1500080886.28,40455,17.81,73602.5,-2.23,-3.03,-3.03,0,*53
1500080887.5,40456,17.81,73598.3,-2.21,-2.87,-2.87,0,*52
1500080888.69,40457,17.81,73598.8,-2.23,-2.91,-2.91,0,*51
1500080889.88,40458,17.81,73594.8,-2.23,-2.87,-2.79,0,*5F
1500080891.16,40459,17.81,73588.8,-2.21,-2.75,-2.75,0,*5D
1500080892.39,40460,17.81,73588.5,-2.21,-2.95,-2.99,0,*5B
1500080893.59,40461,17.81,73594.8,-2.23,-3.03,-3.03,0,*54
1500080894.79,40462,17.81,73602.5,-2.23,-3.03,-2.99,0,*55
1500080895.99,40463,17.81,73604.5,-2.23,-2.99,-2.99,0,*56
1500080897.19,40464,17.81,73606.5,-2.23,-2.87,-2.87,0,*51
1500080898.47,40465,17.81,73600.8,-2.21,-2.71,-2.75,0,*56
1500080899.72,40466,17.81,73596.0,-2.23,-2.75,-2.75,0,*53
1500080900.98,40467,17.81,73598.8,-2.23,-2.63,-2.67,0,*56